Tracking 30986 objects as of 9-Jul-2025
HD Live streaming from Space Station
objects crossing your sky now

CZ-6A DEB

Track CZ-6A DEB now!
10-day predictions


NORAD ID: 54388
Int'l Code: 2022-151DL
Perigee: 821.3 km
Apogee: 947.2 km
Inclination: 98.9 °
Period: 102.5 minutes
Semi major axis: 7255 km
RCS: Unknown
Launch date: November 11, 2022
Source: People's Republic of China (PRC)
Launch site: Taiyaun Space Center, China (TSC)

Note: This is SATELLITE DEBRIS
Your satellite tracking list
Your tracking list is empty




NASA's NSSDC Master Catalog

Two Line Element Set (TLE):
1 54388U 22151DL  25190.50117852  .00000396  00000-0  26531-3 0  9993
2 54388  98.8502 181.3195 0086793 269.6226  89.4996 14.04825250135483
Source of the keplerian elements: AFSPC